Luverne, MN

9:23 AM CST on January 16, 2017 (GMT -0600)
Luverne

Weather History for KLYV - May, 2014

Change the Weather History Date:

Tuesday, May 6, 2014

  Actual Average (KPQN) Record (KPQN)
Temperature  
Mean Temperature 58 °F -  
Max Temperature 71 °F 62 °F 89 °F (2016)
Min Temperature 46 °F 42 °F 35 °F (1997)
Degree Days  
Heating Degree Days 6    
Growing Degree Days 8 (Base 50)    
Moisture  
Dew Point 38 °F    
Average Humidity 46    
Maximum Humidity 66    
Minimum Humidity 31    
Precipitation  
Precipitation 0.00 in - - ()
Sea Level Pressure  
Sea Level Pressure 29.74 in    
Wind  
Wind Speed 14 mph (ESE)    
Max Wind Speed 25 mph    
Max Gust Speed 34 mph    
Visibility 10 miles    
Events      
Averages and records for this station are not official NWS values.
T = Trace of Precipitation, MM = Missing Value Source: NWS Daily Summary

Daily Weather History Graph

Daily Weather History Graph

Search for Another Location

Airport or City:

Trip Planner

Search our weather history database for the weather conditions in past years. The results will help you decide how hot, cold, wet, or windy it might be!

Date:

Astronomy

May. 06, 2014 Rise Set
Actual Time 6:10 AM CDT 8:33 PM CDT
Civil Twilight 5:38 AM CDT 9:05 PM CDT
Nautical Twilight 4:58 AM CDT 9:45 PM CDT
Astronomical Twilight 4:14 AM CDT 10:30 PM CDT
Moon 12:29 PM CDT (5/6) 1:51 AM CDT (5/6)
Length of Visible Light 15h 26m
Length of Day
14h 22m
Waxing Crescent, 46% of the Moon is Illuminated
May 6
Waxing Crescent
May 6
First Quarter
May 14
Full
May 21
Last Quarter
May 28
New

Hourly Weather History & Observations

Time (CDT) Temp. Windchill Dew Point Humidity Pressure Visibility Wind Dir Wind Speed Gust Speed Precip Events Conditions
12:15 AM 51.8 °F - 37.4 °F 58% 29.87 in 10.0 mi East 10.4 mph - N/A   Clear
12:35 AM 51.8 °F - 37.4 °F 58% 29.87 in 10.0 mi East 10.4 mph - N/A   Clear
12:55 AM 50.0 °F - 35.6 °F 58% 29.87 in 10.0 mi East 8.1 mph - N/A   Clear
1:15 AM 50.0 °F - 37.4 °F 62% 29.86 in 10.0 mi ESE 9.2 mph - N/A   Clear
1:35 AM 50.0 °F - 35.6 °F 58% 29.85 in 10.0 mi ESE 10.4 mph - N/A   Clear
1:55 AM 50.0 °F - 35.6 °F 58% 29.84 in 10.0 mi East 9.2 mph - N/A   Clear
2:15 AM 50.0 °F - 35.6 °F 58% 29.85 in 10.0 mi ESE 10.4 mph - N/A   Clear
2:35 AM 50.0 °F - 35.6 °F 58% 29.83 in 10.0 mi ESE 10.4 mph - N/A   Clear
2:55 AM 50.0 °F - 35.6 °F 58% 29.84 in 10.0 mi East 8.1 mph - N/A   Clear
3:35 AM 46.4 °F 41.9 °F 35.6 °F 66% 29.84 in 10.0 mi ESE 9.2 mph - N/A   Clear
3:55 AM 46.4 °F 41.9 °F 35.6 °F 66% 29.84 in 10.0 mi ESE 9.2 mph - N/A   Clear
4:15 AM 46.4 °F 41.9 °F 35.6 °F 66% 29.84 in 10.0 mi East 9.2 mph - N/A   Clear
4:35 AM 46.4 °F 41.5 °F 35.6 °F 66% 29.83 in 10.0 mi East 10.4 mph - N/A   Clear
4:55 AM 46.4 °F 41.5 °F 35.6 °F 66% 29.83 in 10.0 mi ESE 10.4 mph - N/A   Clear
5:15 AM 46.4 °F 41.1 °F 35.6 °F 66% 29.83 in 10.0 mi ESE 11.5 mph - N/A   Clear
5:35 AM 46.4 °F 41.5 °F 35.6 °F 66% 29.84 in 10.0 mi ESE 10.4 mph - N/A   Clear
6:55 AM 46.4 °F 40.7 °F 33.8 °F 62% 29.84 in 10.0 mi East 12.7 mph - N/A   Clear
7:15 AM 46.4 °F 41.9 °F 33.8 °F 62% 29.84 in 10.0 mi East 9.2 mph - N/A   Clear
7:35 AM 46.4 °F 41.1 °F 33.8 °F 62% 29.84 in 10.0 mi East 11.5 mph - N/A   Clear
7:55 AM 50.0 °F - 33.8 °F 54% 29.84 in 10.0 mi ESE 12.7 mph 16.1 mph N/A   Clear
8:15 AM 50.0 °F - 33.8 °F 54% 29.85 in 10.0 mi ESE 12.7 mph 19.6 mph N/A   Clear
9:15 AM 53.6 °F - 35.6 °F 51% 29.84 in 10.0 mi ESE 16.1 mph 20.7 mph N/A   Clear
9:35 AM 53.6 °F - 35.6 °F 51% 29.84 in 10.0 mi East 15.0 mph - N/A   Clear
9:55 AM 55.4 °F - 35.6 °F 47% 29.84 in 10.0 mi ESE 15.0 mph 21.9 mph N/A   Clear
10:15 AM 55.4 °F - 35.6 °F 47% 29.81 in 10.0 mi SE 18.4 mph 21.9 mph N/A   Mostly Cloudy
10:35 AM 55.4 °F - 35.6 °F 47% 29.80 in 10.0 mi ESE 19.6 mph 26.5 mph N/A   Mostly Cloudy
10:55 AM 59.0 °F - 35.6 °F 42% 29.78 in 10.0 mi SE 20.7 mph 29.9 mph N/A   Scattered Clouds
11:15 AM 59.0 °F - 35.6 °F 42% 29.77 in 10.0 mi ESE 21.9 mph 26.5 mph N/A   Clear
11:35 AM 59.0 °F - 35.6 °F 42% 29.76 in 10.0 mi ESE 18.4 mph 27.6 mph N/A   Clear
11:55 AM 60.8 °F - 37.4 °F 42% 29.75 in 10.0 mi ESE 18.4 mph 28.8 mph N/A   Clear
12:15 PM 60.8 °F - 37.4 °F 42% 29.75 in 10.0 mi ESE 19.6 mph 27.6 mph N/A   Clear
12:35 PM 62.6 °F - 37.4 °F 39% 29.73 in 10.0 mi SE 19.6 mph 32.2 mph N/A   Clear
12:55 PM 62.6 °F - 37.4 °F 39% 29.72 in 10.0 mi ESE 19.6 mph 27.6 mph N/A   Clear
1:16 PM 64.4 °F - 37.4 °F 37% 29.70 in 10.0 mi ESE 25.3 mph 31.1 mph N/A   Clear
1:35 PM 66.2 °F - 37.4 °F 35% 29.69 in 10.0 mi ESE 19.6 mph 28.8 mph N/A   Clear
1:55 PM 66.2 °F - 37.4 °F 35% 29.68 in 10.0 mi ESE 23.0 mph 28.8 mph N/A   Clear
2:15 PM 64.4 °F - 37.4 °F 37% 29.69 in 10.0 mi ESE 19.6 mph 28.8 mph N/A   Clear
2:35 PM 68.0 °F - 37.4 °F 33% 29.68 in 10.0 mi ESE 23.0 mph 27.6 mph N/A   Clear
2:55 PM 69.8 °F - 37.4 °F 31% 29.68 in 10.0 mi ESE 24.2 mph 34.5 mph N/A   Clear
3:15 PM 69.8 °F - 39.2 °F 33% 29.68 in 10.0 mi ESE 18.4 mph 26.5 mph N/A   Clear
3:35 PM 69.8 °F - 39.2 °F 33% 29.68 in 10.0 mi SE 20.7 mph 27.6 mph N/A   Scattered Clouds
3:55 PM 71.6 °F - 39.2 °F 31% 29.67 in 10.0 mi ESE 20.7 mph 26.5 mph N/A   Mostly Cloudy
4:15 PM 71.6 °F - 39.2 °F 31% 29.66 in 10.0 mi SE 21.9 mph 29.9 mph N/A   Mostly Cloudy
4:35 PM 69.8 °F - 41.0 °F 35% 29.65 in 10.0 mi ESE 21.9 mph 32.2 mph N/A   Scattered Clouds
4:55 PM 69.8 °F - 41.0 °F 35% 29.63 in 10.0 mi ESE 20.7 mph 27.6 mph N/A   Clear
5:15 PM 71.6 °F - 41.0 °F 33% 29.63 in 10.0 mi ESE 23.0 mph 29.9 mph N/A   Clear
5:35 PM 71.6 °F - 41.0 °F 33% 29.63 in 10.0 mi ESE 25.3 mph 31.1 mph N/A   Clear
5:55 PM 71.6 °F - 41.0 °F 33% 29.63 in 10.0 mi ESE 20.7 mph 29.9 mph N/A   Clear
6:15 PM 69.8 °F - 41.0 °F 35% 29.63 in 10.0 mi ESE 20.7 mph 31.1 mph N/A   Clear
6:35 PM 69.8 °F - 41.0 °F 35% 29.64 in 10.0 mi ESE 18.4 mph 28.8 mph N/A   Clear
6:55 PM 69.8 °F - 41.0 °F 35% 29.66 in 10.0 mi ESE 17.3 mph 25.3 mph N/A   Clear
7:15 PM 69.8 °F - 41.0 °F 35% 29.66 in 10.0 mi ESE 16.1 mph 21.9 mph N/A   Clear
7:35 PM 68.0 °F - 41.0 °F 37% 29.67 in 10.0 mi ESE 15.0 mph 20.7 mph N/A   Scattered Clouds
7:55 PM 68.0 °F - 41.0 °F 37% 29.68 in 10.0 mi ESE 15.0 mph - N/A   Mostly Cloudy
8:15 PM 68.0 °F - 41.0 °F 37% 29.67 in 10.0 mi ESE 15.0 mph - N/A   Mostly Cloudy
8:35 PM 68.0 °F - 41.0 °F 37% 29.66 in 10.0 mi ESE 15.0 mph - N/A   Scattered Clouds
8:55 PM 64.4 °F - 41.0 °F 42% 29.67 in 10.0 mi ESE 11.5 mph - N/A   Mostly Cloudy
9:15 PM 64.4 °F - 39.2 °F 40% 29.66 in 10.0 mi ESE 12.7 mph 19.6 mph N/A   Scattered Clouds
9:35 PM 64.4 °F - 37.4 °F 37% 29.66 in 10.0 mi East 15.0 mph 20.7 mph N/A   Clear
9:55 PM 62.6 °F - 37.4 °F 39% 29.65 in 10.0 mi ESE 13.8 mph - N/A   Clear
10:15 PM 62.6 °F - 39.2 °F 42% 29.65 in 10.0 mi ESE 15.0 mph - N/A   Clear
10:35 PM 62.6 °F - 39.2 °F 42% 29.64 in 10.0 mi ESE 16.1 mph 21.9 mph N/A   Clear
10:55 PM 60.8 °F - 39.2 °F 45% 29.64 in 10.0 mi ESE 15.0 mph 20.7 mph N/A   Clear
11:15 PM 60.8 °F - 39.2 °F 45% 29.64 in 10.0 mi ESE 17.3 mph 23.0 mph N/A   Clear
11:35 PM 60.8 °F - 39.2 °F 45% 29.64 in 10.0 mi ESE 16.1 mph 23.0 mph N/A   Clear
11:55 PM 60.8 °F - 41.0 °F 48% 29.65 in 10.0 mi ESE 15.0 mph 21.9 mph N/A   Clear